Tracking 28052 objects as of 25-Sep-2023
HD Live streaming from Space Station
objects crossing your sky now

STARLINK-4760

Track STARLINK-4760 now!
10-day predictions
STARLINK-4760 is classified as:


NORAD ID: 53828
Int'l Code: 2022-114L
Perigee: 546.0 km
Apogee: 547.8 km
Inclination: 53.2 °
Period: 95.4 minutes
Semi major axis: 6917 km
RCS: Unknown
Launch date: September 19, 2022
Source: United States (US)
Launch site: AIR FORCE EASTERN TEST RANGE (AFETR)
Your satellite tracking list
Your tracking list is empty




NASA's NSSDC Master Catalog

Two Line Element Set (TLE):
1 53828U 22114L   23268.33516361  .00000850  00000-0  71512-4 0  9998
2 53828  53.2186   7.9189 0001327  95.9302 264.1842 15.08840130 56972
Source of the keplerian elements: AFSPC